This is the latest recevied weather packets stored in our database for station/object KI5MKI. If no packets are shown the sender has not sent any weather packets the latest 10 day(s).
| Time | Temp. | Humidity | Pressure | Rain* | Wind** | Luminosity | Snow |
|---|---|---|---|---|---|---|---|
| 1777935630 | 25.56° C | 51% | 1008.2 hPa | 0 mm | - | 284 W/m² | - |
| 1777935326 | 26.11° C | 50% | 1008.2 hPa | 0 mm | - | 322 W/m² | - |
| 1777935023 | 26.11° C | 50% | 1008.3 hPa | 0 mm | - | 287 W/m² | - |
| 1777934720 | 26.11° C | 52% | 1008.3 hPa | 0 mm | - | 350 W/m² | - |
| 1777934417 | 26.11° C | 51% | 1008.6 hPa | 0 mm | - | 351 W/m² | - |
| 1777934113 | 26.11° C | 50% | 1008.6 hPa | 0 mm | - | 366 W/m² | - |
| 1777933810 | 26.11° C | 51% | 1008.4 hPa | 0 mm | - | 414 W/m² | - |
| 1777933506 | 26.11° C | 50% | 1008.6 hPa | 0 mm | - | 379 W/m² | - |
| 1777933204 | 26.11° C | 50% | 1008.8 hPa | 0 mm | - | 470 W/m² | - |
| 1777932901 | 26.11° C | 51% | 1008.5 hPa | 0 mm | - | 509 W/m² | - |
| 1777932598 | 26.11° C | 51% | 1008.6 hPa | 0 mm | - | 414 W/m² | - |
| 1777932294 | 26.11° C | 49% | 1008.5 hPa | 0 mm | - | 451 W/m² | - |
| 1777931991 | 26.11° C | 49% | 1008.9 hPa | 0 mm | - | 475 W/m² | - |
| 1777931688 | 26.11° C | 49% | 1008.9 hPa | 0 mm | - | 551 W/m² | - |
| 1777931384 | 26.11° C | 49% | 1008.8 hPa | 0 mm | - | 544 W/m² | - |
| 1777931081 | 26.67° C | 50% | 1009.1 hPa | 0 mm | - | 522 W/m² | - |
| 1777930778 | 26.67° C | 49% | 1009.1 hPa | 0 mm | - | 564 W/m² | - |
| 1777930474 | 26.67° C | 49% | 1008.9 hPa | 0 mm | - | 574 W/m² | - |
| 1777930171 | 26.67° C | 49% | 1009.2 hPa | 0 mm | - | 650 W/m² | - |
| 1777929867 | 26.11° C | 49% | 1008.9 hPa | 0 mm | - | 650 W/m² | - |
| 1777929565 | 26.11° C | 47% | 1009.3 hPa | 0 mm | - | 636 W/m² | - |
| 1777929261 | 26.11° C | 47% | 1009.3 hPa | 0 mm | - | 652 W/m² | - |
| 1777928959 | 26.67° C | 48% | 1009.3 hPa | 0 mm | - | 735 W/m² | - |
| 1777928656 | 26.67° C | 46% | 1009.6 hPa | 0 mm | - | 662 W/m² | - |
| 1777928352 | 26.11° C | 47% | 1009.8 hPa | 0 mm | - | 768 W/m² | - |
* Rain latest hour (hover to see other rain measurements)
** Current wind speed in m/s (hover to see current wind gust speed)